Norfolk, NE

4:39 AM CDT on June 28, 2017 (GMT -0500)
Stefan Memorial

Weather History for KOFK - February, 2011

Change the Weather History Date:

Saturday, February 26, 2011

  Actual Average Record
Temperature  
Mean Temperature 14 °F 30 °F  
Max Temperature 21 °F 41 °F 72 °F (1896)
Min Temperature 6 °F 20 °F -22 °F (1934)
Degree Days  
Heating Degree Days 51 35  
Month to date heating degree days 1051 1001  
Since 1 July heating degree days 5139 5023  
Cooling Degree Days 0 0  
Month to date cooling degree days 0 0  
Year to date cooling degree days 0 0  
Moisture  
Dew Point 8 °F    
Average Humidity 84    
Maximum Humidity 91    
Minimum Humidity 76    
Precipitation  
Precipitation 0.06 in 0.04 in 0.70 in (1899)
Month to date precipitation 0.59 0.70  
Year to date precipitation 2.15 1.29  
Snow  
Snow 1.30 in 0.20 in - ()
Month to date snowfall 3.1 5.2  
Since 1 July snowfall 29.1 22.5  
Snow Depth 1.00 in    
Sea Level Pressure  
Sea Level Pressure 29.91 in    
Wind  
Wind Speed 7 mph (SE)    
Max Wind Speed 13 mph    
Max Gust Speed 16 mph    
Visibility 4 miles    
Events Snow    
T = Trace of Precipitation, MM = Missing Value Source: NWS Daily Summary

Daily Weather History Graph

Daily Weather History Graph

Search for Another Location

Airport or City:

Trip Planner

Search our weather history database for the weather conditions in past years. The results will help you decide how hot, cold, wet, or windy it might be!

Date:

Astronomy

Feb. 26, 2011 Rise Set
Actual Time 7:09 AM CST 6:16 PM CST
Civil Twilight 6:41 AM CST 6:44 PM CST
Nautical Twilight 6:09 AM CST 7:16 PM CST
Astronomical Twilight 5:37 AM CST 7:48 PM CST
Moon 3:16 AM CST (2/26) 12:28 PM CST (2/26)
Length of Visible Light 12h 02m
Length of Day
11h 06m
Waning Crescent, 32% of the Moon is Illuminated
Feb 26
Waning Crescent
Mar 4
New
Mar 12
First Quarter
Mar 19
Full
Mar 26
Last Quarter

Hourly Weather History & Observations

Time (CST) Temp. Windchill Dew Point Humidity Pressure Visibility Wind Dir Wind Speed Gust Speed Precip Events Conditions
1:56 AM 7.0 °F -1.7 °F 1.0 °F 77% 30.17 in 9.0 mi ENE 4.6 mph - 0.00 in Snow Light Snow
2:13 AM 6.8 °F -2.0 °F 1.4 °F 79% 30.06 in 10.0 mi East 4.6 mph - N/A   Overcast
2:56 AM 7.0 °F 0.1 °F 1.0 °F 77% 30.16 in 8.0 mi East 3.5 mph - 0.00 in Snow Light Snow
3:56 AM 7.0 °F -1.7 °F 1.9 °F 80% 30.13 in 7.0 mi NE 4.6 mph - 0.00 in Snow Light Snow
4:56 AM 7.0 °F 0.1 °F 1.9 °F 80% 30.11 in 3.0 mi ENE 3.5 mph - 0.01 in Snow Light Snow
5:35 AM 6.8 °F -2.0 °F 1.4 °F 79% 30.00 in 2.5 mi NE 4.6 mph - 0.00 in Snow Light Snow
5:43 AM 6.8 °F -2.0 °F 1.4 °F 79% 29.98 in 1.5 mi ENE 4.6 mph - 0.00 in Snow Light Snow
5:56 AM 7.0 °F -3.3 °F 1.9 °F 80% 30.09 in 1.2 mi ENE 5.8 mph - 0.01 in Snow Light Snow
6:56 AM 7.0 °F -3.3 °F 1.9 °F 80% 30.04 in 1.8 mi East 5.8 mph - 0.01 in Snow Light Snow
7:07 AM 6.8 °F -2.0 °F 1.4 °F 79% 29.93 in 2.0 mi East 4.6 mph - 0.01 in Snow Light Snow
7:21 AM 6.8 °F -6.9 °F 3.2 °F 85% 29.91 in 1.2 mi ESE 9.2 mph - 0.01 in Snow Light Snow
7:38 AM 6.8 °F -2.0 °F 3.2 °F 85% 29.93 in 1.8 mi East 4.6 mph - N/A Snow Light Snow
7:43 AM 6.8 °F -3.5 °F 3.2 °F 85% 29.93 in 2.0 mi East 5.8 mph - 0.01 in Snow Light Snow
7:56 AM 7.0 °F -4.5 °F 3.0 °F 84% 30.04 in 2.5 mi East 6.9 mph - 0.01 in Snow Light Snow
8:06 AM 6.8 °F -2.0 °F 3.2 °F 85% 29.94 in 1.5 mi East 4.6 mph - 0.00 in Snow Light Snow
8:26 AM 8.6 °F -1.3 °F 3.2 °F 79% 29.93 in 0.8 mi East 5.8 mph - 0.00 in Snow Light Snow
8:41 AM 8.6 °F -2.6 °F 3.2 °F 79% 29.92 in 1.2 mi ESE 6.9 mph - 0.01 in Snow Light Snow
8:56 AM 8.1 °F -4.3 °F 3.0 °F 80% 30.02 in 1.5 mi ESE 8.1 mph - 0.01 in Snow Light Snow
9:03 AM 8.6 °F -3.7 °F 3.2 °F 79% 29.91 in 2.0 mi ESE 8.1 mph - 0.00 in Snow Light Snow
9:27 AM 8.6 °F -7.0 °F 3.2 °F 79% 29.89 in 3.0 mi SE 12.7 mph - N/A Snow Light Snow
9:37 AM 8.6 °F -3.7 °F 3.2 °F 79% 29.89 in 3.0 mi SE 8.1 mph - 0.01 in Snow Light Snow
9:56 AM 10.0 °F -1.9 °F 5.0 °F 80% 29.99 in 3.0 mi ESE 8.1 mph - 0.01 in Snow Light Snow
10:56 AM 12.0 °F 1.5 °F 6.1 °F 77% 29.98 in 3.0 mi SE 6.9 mph - 0.00 in Snow Light Snow
11:07 AM 12.2 °F 1.7 °F 6.8 °F 79% 29.87 in 2.5 mi SE 6.9 mph - 0.00 in Snow Light Snow
11:36 AM 12.2 °F 1.7 °F 8.6 °F 85% 29.86 in 2.5 mi SSE 6.9 mph - 0.00 in Snow Light Snow
11:43 AM 12.2 °F 1.7 °F 8.6 °F 85% 29.86 in 3.0 mi SSE 6.9 mph - 0.00 in Snow Light Snow
11:56 AM 14.0 °F 5.1 °F 8.1 °F 77% 29.96 in 4.0 mi SSE 5.8 mph - 0.00 in Snow Light Snow
12:13 PM 14.0 °F 2.9 °F 8.6 °F 79% 29.85 in 2.5 mi South 8.1 mph - 0.00 in Snow Light Snow
12:43 PM 15.8 °F 4.2 °F 10.4 °F 79% 29.83 in 4.0 mi South 9.2 mph - 0.00 in Snow Light Snow
12:53 PM 15.8 °F 4.2 °F 10.4 °F 79% 29.83 in 5.0 mi South 9.2 mph - 0.00 in   Haze
12:56 PM 15.1 °F 4.2 °F 10.0 °F 80% 29.92 in 5.0 mi South 8.1 mph - 0.00 in   Haze
1:08 PM 15.8 °F 4.2 °F 10.4 °F 79% 29.81 in 8.0 mi South 9.2 mph - N/A   Overcast
1:56 PM 16.0 °F 5.3 °F 12.0 °F 84% 29.86 in 9.0 mi South 8.1 mph - N/A   Overcast
2:56 PM 18.0 °F 6.9 °F 14.0 °F 84% 29.83 in 10.0 mi South 9.2 mph - N/A   Overcast
3:09 PM 19.4 °F 7.9 °F 14.0 °F 80% 29.73 in 10.0 mi South 10.4 mph - N/A   Overcast
3:40 PM 19.4 °F 9.5 °F 14.0 °F 80% 29.74 in 9.0 mi SW 8.1 mph - N/A   Overcast
3:56 PM 19.0 °F 10.0 °F 14.0 °F 81% 29.83 in 7.0 mi SSW 6.9 mph - N/A   Overcast
4:56 PM 19.0 °F 9.0 °F 15.1 °F 85% 29.82 in 8.0 mi SSW 8.1 mph - N/A   Overcast
5:56 PM 19.9 °F 10.1 °F 15.1 °F 81% 29.82 in 8.0 mi SSW 8.1 mph - N/A   Overcast
7:56 PM 19.9 °F 8.6 °F 15.1 °F 81% 29.81 in 7.0 mi SW 10.4 mph - N/A   Overcast
8:24 PM 19.4 °F 7.9 °F 15.8 °F 86% 29.71 in 7.0 mi SW 10.4 mph - N/A   Overcast
8:56 PM 19.9 °F 13.4 °F 17.1 °F 89% 29.79 in 6.0 mi South 4.6 mph - N/A   Overcast
9:56 PM 19.9 °F 11.1 °F 17.1 °F 89% 29.79 in 5.0 mi South 6.9 mph - N/A   Overcast
10:56 PM 19.9 °F 11.1 °F 18.0 °F 92% 29.78 in 5.0 mi South 6.9 mph - N/A   Overcast
11:56 PM 21.0 °F 12.4 °F 19.0 °F 92% 29.75 in 4.0 mi South 6.9 mph - N/A   Overcast